GIA009 WIOO-WIDD

Flight info

Callsign GIA009
Flight time N/A
Altitude 32000
Route BAVUS L504 OBDOS T22 UGEBO
Aircraft B738/M-SDE2E3FGHIRWXY/LB1

Departure

Time N/A
Airport Supadio International Airport (WIOO)

Arrival

Time 2026-05-06 12:30
Airport Hang Nadim International Airport (WIDD)
Time Latitude Longitude Altitude Speed Heading
2026-05-06 11:32 0.16074 108.12348 28170 ft 430 kts 282°
2026-05-06 11:33 0.17315 108.06597 28677 ft 435 kts 282°
2026-05-06 11:33 0.17951 108.03648 29168 ft 432 kts 282°
2026-05-06 11:33 0.18579 108.00736 29677 ft 429 kts 282°
2026-05-06 11:33 0.19206 107.97831 30144 ft 425 kts 282°
2026-05-06 11:34 0.19821 107.94982 30582 ft 422 kts 282°
2026-05-06 11:34 0.20437 107.92126 31029 ft 418 kts 282°
2026-05-06 11:34 0.21045 107.89309 31479 ft 414 kts 282°
2026-05-06 11:34 0.21653 107.86491 31828 ft 414 kts 282°
2026-05-06 11:35 0.22263 107.83666 31817 ft 421 kts 282°
2026-05-06 11:35 0.23516 107.77862 31848 ft 434 kts 282°
2026-05-06 11:36 0.24806 107.71882 31848 ft 445 kts 282°
2026-05-06 11:36 0.26127 107.65760 31843 ft 456 kts 282°
2026-05-06 11:37 0.27478 107.59497 31841 ft 465 kts 282°
2026-05-06 11:37 0.28856 107.53110 31840 ft 473 kts 282°
2026-05-06 11:38 0.30238 107.46707 31836 ft 477 kts 282°
2026-05-06 11:38 0.31637 107.40222 31834 ft 477 kts 282°
2026-05-06 11:39 0.32810 107.34783 31835 ft 477 kts 282°
2026-05-06 11:39 0.34435 107.27252 31834 ft 477 kts 282°
2026-05-06 11:40 0.35832 107.20774 31830 ft 476 kts 282°
2026-05-06 11:40 0.37225 107.14318 31833 ft 475 kts 282°
2026-05-06 11:41 0.38378 107.08969 31834 ft 474 kts 282°
2026-05-06 11:41 0.39766 107.02534 31837 ft 473 kts 282°
2026-05-06 11:42 0.41140 106.96163 31824 ft 465 kts 282°
2026-05-06 11:42 0.42534 106.88774 31839 ft 464 kts 278°
2026-05-06 11:43 0.43421 106.82381 31837 ft 465 kts 277°
2026-05-06 11:43 0.44139 106.77055 31837 ft 465 kts 278°
2026-05-06 11:44 0.45642 106.66403 31837 ft 466 kts 278°
2026-05-06 11:44 0.46565 106.60001 31840 ft 466 kts 278°
2026-05-06 11:45 0.47336 106.54652 31835 ft 466 kts 278°
2026-05-06 11:45 0.48261 106.48232 31839 ft 467 kts 278°
2026-05-06 11:46 0.49342 106.40729 31837 ft 467 kts 278°
2026-05-06 11:46 0.50261 106.34337 31837 ft 467 kts 278°
2026-05-06 11:47 0.51185 106.27921 31839 ft 467 kts 278°
2026-05-06 11:47 0.51962 106.22517 31839 ft 467 kts 278°
2026-05-06 11:48 0.52886 106.16098 31837 ft 468 kts 278°
2026-05-06 11:48 0.53813 106.09659 31838 ft 468 kts 278°
2026-05-06 11:49 0.54734 106.03257 31842 ft 467 kts 278°
2026-05-06 11:49 0.55658 105.96832 31840 ft 467 kts 278°
2026-05-06 11:50 0.56584 105.90395 31841 ft 467 kts 278°
2026-05-06 11:50 0.57509 105.83964 31842 ft 468 kts 278°
2026-05-06 11:51 0.58434 105.77533 31842 ft 468 kts 278°
2026-05-06 11:51 0.59354 105.71131 31839 ft 468 kts 278°
2026-05-06 11:52 0.60276 105.64720 31842 ft 468 kts 278°
2026-05-06 11:52 0.61208 105.58236 31837 ft 468 kts 278°
2026-05-06 11:53 0.62133 105.51802 31839 ft 468 kts 278°
2026-05-06 11:53 0.62862 105.45381 31817 ft 468 kts 265°
2026-05-06 11:54 0.62225 105.42229 31847 ft 466 kts 248°
2026-05-06 11:54 0.60750 105.39351 31855 ft 464 kts 234°
2026-05-06 11:54 0.58614 105.36956 31833 ft 462 kts 218°
2026-05-06 11:54 0.56082 105.34991 31849 ft 461 kts 215°
2026-05-06 11:55 0.50897 105.31243 31834 ft 462 kts 214°
2026-05-06 11:55 0.45643 105.27446 31839 ft 463 kts 215°
2026-05-06 11:56 0.40534 105.23681 31829 ft 455 kts 215°
2026-05-06 11:56 0.35486 105.19927 31836 ft 451 kts 216°
2026-05-06 11:57 0.32974 105.18056 31663 ft 453 kts 216°
2026-05-06 11:57 0.30451 105.16178 31301 ft 449 kts 216°
2026-05-06 11:57 0.27957 105.14322 30890 ft 445 kts 215°
2026-05-06 11:57 0.25483 105.12481 30476 ft 442 kts 215°
2026-05-06 11:58 0.23070 105.10685 30046 ft 440 kts 215°
2026-05-06 11:58 0.20575 105.08830 29538 ft 438 kts 215°
2026-05-06 11:58 0.18136 105.07016 29066 ft 434 kts 215°
2026-05-06 11:58 0.15732 105.05228 28598 ft 431 kts 215°
2026-05-06 11:59 0.13337 105.03446 28144 ft 428 kts 215°
2026-05-06 11:59 0.10960 105.01678 27699 ft 424 kts 215°
2026-05-06 11:59 0.08603 104.99926 27257 ft 421 kts 215°
2026-05-06 11:59 0.06255 104.98179 26817 ft 419 kts 215°
2026-05-06 12:00 0.03920 104.96443 26384 ft 416 kts 215°
2026-05-06 12:00 0.01604 104.94721 25936 ft 414 kts 215°
2026-05-06 12:00 -0.00692 104.93013 25495 ft 412 kts 215°
2026-05-06 12:00 -0.02999 104.91297 25050 ft 411 kts 215°
2026-05-06 12:01 -0.05245 104.89627 24618 ft 410 kts 215°
2026-05-06 12:01 -0.07545 104.87916 24169 ft 408 kts 215°
2026-05-06 12:01 -0.09810 104.86232 23741 ft 407 kts 215°
2026-05-06 12:01 -0.12083 104.84541 23277 ft 405 kts 215°
2026-05-06 12:02 -0.14318 104.82878 22799 ft 400 kts 215°
2026-05-06 12:02 -0.16547 104.81220 22357 ft 397 kts 215°
2026-05-06 12:02 -0.18752 104.79580 22008 ft 392 kts 215°
2026-05-06 12:02 -0.20929 104.77960 21674 ft 387 kts 215°
2026-05-06 12:03 -0.23087 104.76355 21290 ft 384 kts 215°
2026-05-06 12:03 -0.25231 104.74760 20871 ft 383 kts 215°
2026-05-06 12:03 -0.27354 104.73181 20467 ft 380 kts 215°
2026-05-06 12:03 -0.29468 104.71608 20097 ft 378 kts 215°
2026-05-06 12:04 -0.31563 104.70044 19725 ft 376 kts 218°
2026-05-06 12:04 -0.33261 104.68074 19287 ft 377 kts 242°
2026-05-06 12:04 -0.33998 104.65594 18927 ft 374 kts 265°
2026-05-06 12:04 -0.33842 104.63055 18484 ft 370 kts 284°
2026-05-06 12:05 -0.32858 104.60669 18019 ft 370 kts 303°
2026-05-06 12:05 -0.31188 104.58781 17633 ft 365 kts 323°
2026-05-06 12:05 -0.29017 104.57533 17248 ft 359 kts 341°
2026-05-06 12:05 -0.26605 104.57010 16859 ft 354 kts 356°
2026-05-06 12:06 -0.24145 104.56840 16468 ft 351 kts 359°
2026-05-06 12:06 -0.21707 104.56738 16090 ft 350 kts 359°
2026-05-06 12:06 -0.19279 104.56650 15720 ft 348 kts 359°
2026-05-06 12:06 -0.16869 104.56557 15375 ft 345 kts 359°
2026-05-06 12:07 -0.14471 104.56457 15021 ft 343 kts 359°
2026-05-06 12:07 -0.12091 104.56349 14654 ft 342 kts 359°
2026-05-06 12:07 -0.09714 104.56237 14305 ft 340 kts 359°
2026-05-06 12:07 -0.07412 104.56125 13970 ft 338 kts 359°
2026-05-06 12:08 -0.05028 104.56007 13618 ft 336 kts 359°
2026-05-06 12:08 -0.02732 104.55892 13241 ft 334 kts 359°
2026-05-06 12:08 -0.00405 104.55774 12856 ft 332 kts 359°
2026-05-06 12:08 0.01899 104.55658 12484 ft 330 kts 358°
2026-05-06 12:09 0.04192 104.55542 12124 ft 328 kts 358°
2026-05-06 12:09 0.06465 104.55428 11761 ft 327 kts 358°
2026-05-06 12:09 0.08733 104.55313 11405 ft 325 kts 358°
2026-05-06 12:09 0.10979 104.55199 11085 ft 320 kts 358°
2026-05-06 12:10 0.13165 104.55088 10818 ft 308 kts 358°
2026-05-06 12:10 0.15268 104.54981 10533 ft 298 kts 358°
2026-05-06 12:10 0.17315 104.54877 10231 ft 290 kts 358°
2026-05-06 12:10 0.19315 104.54776 9895 ft 287 kts 358°
2026-05-06 12:11 0.21309 104.54676 9592 ft 287 kts 358°
2026-05-06 12:11 0.23297 104.54575 9329 ft 284 kts 358°
2026-05-06 12:11 0.25244 104.54477 9032 ft 283 kts 358°
2026-05-06 12:11 0.27225 104.54377 8721 ft 282 kts 358°
2026-05-06 12:12 0.29183 104.54278 8431 ft 281 kts 358°
2026-05-06 12:12 0.31105 104.54181 8151 ft 280 kts 357°
2026-05-06 12:12 0.33047 104.54083 7864 ft 279 kts 357°
2026-05-06 12:12 0.34984 104.53985 7578 ft 278 kts 357°
2026-05-06 12:13 0.36911 104.53887 7302 ft 277 kts 357°
2026-05-06 12:13 0.38830 104.53790 7023 ft 276 kts 357°
2026-05-06 12:13 0.40750 104.53693 6747 ft 275 kts 357°
2026-05-06 12:13 0.42652 104.53596 6481 ft 274 kts 357°
2026-05-06 12:14 0.44543 104.53501 6219 ft 273 kts 357°
2026-05-06 12:14 0.46454 104.53404 5930 ft 272 kts 357°
2026-05-06 12:14 0.48341 104.53314 5659 ft 271 kts 357°
2026-05-06 12:14 0.50219 104.53230 5390 ft 270 kts 357°
2026-05-06 12:15 0.52085 104.53148 5175 ft 267 kts 357°
2026-05-06 12:15 0.53933 104.53067 5035 ft 265 kts 357°
2026-05-06 12:15 0.55774 104.52985 4901 ft 265 kts 357°
2026-05-06 12:15 0.57539 104.52571 4843 ft 261 kts 327°
2026-05-06 12:16 0.58812 104.51309 4882 ft 260 kts 307°
2026-05-06 12:16 0.59943 104.49857 4822 ft 267 kts 307°
2026-05-06 12:16 0.61072 104.48410 4738 ft 267 kts 307°
2026-05-06 12:16 0.62215 104.46951 4672 ft 263 kts 307°
2026-05-06 12:17 0.63311 104.45558 4607 ft 247 kts 307°
2026-05-06 12:17 0.64348 104.44248 4475 ft 234 kts 307°
2026-05-06 12:17 0.65333 104.43005 4380 ft 221 kts 307°
2026-05-06 12:17 0.66259 104.41839 4300 ft 207 kts 307°
2026-05-06 12:18 0.67140 104.40731 4263 ft 202 kts 307°
2026-05-06 12:18 0.68020 104.39624 4206 ft 206 kts 307°
2026-05-06 12:18 0.68924 104.38487 4171 ft 211 kts 307°
2026-05-06 12:18 0.69841 104.37334 4094 ft 211 kts 307°
2026-05-06 12:19 0.70751 104.36193 4017 ft 210 kts 307°
2026-05-06 12:19 0.71662 104.35050 3946 ft 209 kts 307°
2026-05-06 12:19 0.72563 104.33920 3873 ft 207 kts 307°
2026-05-06 12:19 0.73459 104.32797 3806 ft 206 kts 307°
2026-05-06 12:20 0.74352 104.31677 3743 ft 205 kts 307°
2026-05-06 12:20 0.75239 104.30565 3683 ft 205 kts 307°
2026-05-06 12:20 0.76131 104.29446 3609 ft 206 kts 307°
2026-05-06 12:20 0.77024 104.28326 3538 ft 207 kts 307°
2026-05-06 12:21 0.77964 104.27147 3488 ft 236 kts 307°
2026-05-06 12:21 0.79055 104.25776 3406 ft 259 kts 307°
2026-05-06 12:21 0.80181 104.24365 3317 ft 260 kts 307°
2026-05-06 12:21 0.81289 104.22977 3226 ft 260 kts 307°
2026-05-06 12:22 0.82430 104.21547 3133 ft 258 kts 307°
2026-05-06 12:22 0.83539 104.20158 3044 ft 257 kts 307°
2026-05-06 12:22 0.84652 104.18763 2957 ft 257 kts 307°
2026-05-06 12:22 0.85784 104.17345 2874 ft 258 kts 307°
2026-05-06 12:23 0.86895 104.15953 2797 ft 258 kts 308°
2026-05-06 12:23 0.88006 104.14561 2713 ft 259 kts 307°
2026-05-06 12:23 0.89127 104.13155 2641 ft 258 kts 307°
2026-05-06 12:23 0.90238 104.11761 2545 ft 253 kts 307°
2026-05-06 12:24 0.91302 104.10428 2486 ft 238 kts 307°
2026-05-06 12:24 0.92305 104.09170 2380 ft 225 kts 307°
2026-05-06 12:24 0.93252 104.07983 2265 ft 213 kts 308°
2026-05-06 12:24 0.94150 104.06858 2181 ft 204 kts 307°
2026-05-06 12:25 0.95032 104.05751 2071 ft 205 kts 307°
2026-05-06 12:25 0.95914 104.04646 2033 ft 207 kts 307°
2026-05-06 12:25 0.96814 104.03518 2021 ft 205 kts 307°
2026-05-06 12:25 0.97718 104.02412 2003 ft 204 kts 315°
2026-05-06 12:26 0.98978 104.01829 2018 ft 205 kts
2026-05-06 12:26 1.00332 104.02240 2050 ft 208 kts 27°
2026-05-06 12:26 1.01628 104.02875 2023 ft 205 kts 31°
2026-05-06 12:26 1.02761 104.03657 2017 ft 193 kts 37°
2026-05-06 12:27 1.03780 104.04486 1877 ft 185 kts 41°
2026-05-06 12:27 1.04718 104.05315 1685 ft 172 kts 42°
2026-05-06 12:27 1.05568 104.06072 1440 ft 162 kts 43°
2026-05-06 12:27 1.06403 104.06815 1242 ft 161 kts 42°
2026-05-06 12:28 1.07246 104.07563 1039 ft 160 kts 43°
2026-05-06 12:28 1.08072 104.08297 839 ft 159 kts 43°
2026-05-06 12:28 1.08905 104.09036 631 ft 158 kts 43°
2026-05-06 12:28 1.09711 104.09757 467 ft 153 kts 43°
2026-05-06 12:29 1.10471 104.10448 250 ft 146 kts 45°
2026-05-06 12:29 1.11199 104.11085 143 ft 129 kts 43°
2026-05-06 12:29 1.11811 104.11627 134 ft 100 kts 41°
2026-05-06 12:29 1.12239 104.12006 137 ft 65 kts 41°
2026-05-06 12:30 1.12533 104.12211 136 ft 46 kts 18°
2026-05-06 12:30 1.12702 104.12223 136 ft 8 kts 291°
2026-05-06 12:30 1.12680 104.12175 136 ft 8 kts 225°
2026-05-06 12:30 1.12640 104.12137 136 ft 8 kts 223°
2026-05-06 12:31 1.12598 104.12104 136 ft 8 kts 219°
2026-05-06 12:31 1.12559 104.12070 136 ft 7 kts 221°
2026-05-06 12:31 1.12522 104.12036 136 ft 8 kts 225°
2026-05-06 12:31 1.12469 104.11988 136 ft 13 kts 221°
2026-05-06 12:32 1.12418 104.11943 136 ft 17 kts 221°
2026-05-06 12:32 1.12319 104.11852 137 ft 1 kts 244°
2026-05-06 12:32 1.12322 104.11844 137 ft 3 kts 286°
2026-05-06 12:32 1.12342 104.11811 136 ft 7 kts 306°
2026-05-06 12:33 1.12353 104.11777 136 ft 4 kts 259°
2026-05-06 12:33 1.12336 104.11749 136 ft 5 kts 201°
2026-05-06 12:33 1.12293 104.11732 136 ft 7 kts 213°
2026-05-06 12:33 1.12278 104.11692 136 ft 4 kts 287°
2026-05-06 12:34 1.12286 104.11679 136 ft 0 kts 301°
2026-05-06 12:34 1.12287 104.11678 136 ft 1 kts 305°
2026-05-06 12:35 1.12301 104.11661 136 ft 3 kts 310°
2026-05-06 12:35 1.12307 104.11653 136 ft 2 kts 311°
2026-05-06 12:35 1.12312 104.11648 136 ft 0 kts 311°
2026-05-06 12:35 1.12313 104.11646 136 ft 0 kts 311°
2026-05-06 12:36 1.12315 104.11644 136 ft 0 kts 311°